Content
SEND FEEDBACK

Daily
Averages
Monthly
Summary
Canada

QUEBEC CITY AIRPORT, QUEBEC


Home > North America > Canada > Quebec
Elevation: 244 feet     Latitude: 46 48N     Longitude: 71 23W

WEATHER
 
SELECT A DAY
Number of Records: 191,965;   Date Range: 6/30/96 - 7/20/14
 
SHARE

PRINT THIS DATA

[ ← Previous Day ]
WEATHER ALMANAC - JANUARY 3, 2013
[ Next Day → ]
[ °C ]   °F
Weather ElementAverageHighLow
Temperature-3.6 °F1.4 °F (2:00 pm)-7.6 °F (3:00 am)
Dewpoint-12.3 °F (7:36 pm)-18.4 °F (2:00 am)
Humidity62.1 %72 % (10:00 pm)55 % (2:00 am)
Barometer29.15 in30.19 in (3:00 am) (7:00 pm)
Wind Speed10.8 mph18.4 mph (3:00 pm)
Weather ElementAverage
Visibility17.8 mi
Wind DirectionWSW (244.4 °)

Weather ElementTotal
Precipitation---
Heating Degree Days68.1 (Base 65)
Averaged from 32 records on January 3, 2013
WEATHER CONDITIONS BREAKOUT
WIND DIRECTION BREAKOUT
WEATHER BY HOUR - JANUARY 3, 2013
[ °C ]   °F
Local TimeTemperatureDewpointHumidityBarometerVisibilityWind DirectionWind SpeedGust SpeedPrecipitationEventsConditions
1:00 AM-5.0 °F-13.0 °F56 %30.15 inWest (270°)8.1 mph
1:00 AM-5.8 °F-16.6 °F60 %30.17 in15.0 miWest (260°)11.5 mphClear
2:00 AM-5.8 °F-18.4 °F55 %30.17 in15.0 miWSW (240°)13.8 mphClear
3:00 AM-7.6 °F-18.4 °F59 %30.19 in15.0 miSW (230°)16.1 mphClear
4:00 AM-6.0 °F-14.0 °F55 %30.17 inWest (260°)6.9 mph
4:00 AM-7.6 °F-18.4 °F59 %30.18 in15.0 miWSW (250°)11.5 mphClear
5:00 AM-7.6 °F-18.4 °F59 %30.17 in15.0 miWSW (240°)13.8 mphPartly Cloudy
6:00 AM-7.6 °F-16.6 °F65 %30.16 in15.0 miWSW (250°)17.3 mphPartly Cloudy
7:00 AM-7.6 °F-16.6 °F65 %30.16 in15.0 miWSW (240°)11.5 mphMostly Cloudy
7:00 AM-6.0 °F-13.0 °F58 %30.15 inWSW (250°)9.2 mph
8:00 AM-7.6 °F-16.6 °F65 %30.15 in25.0 miWSW (250°)15.0 mphMostly Cloudy
9:00 AM-7.6 °F-16.6 °F65 %30.17 in25.0 miWSW (250°)17.3 mphMostly Cloudy
10:00 AM-5.0 °F-12.0 °F56 %30.16 inSW (230°)9.2 mph
10:00 AM-5.8 °F-16.6 °F60 %30.16 in25.0 miWSW (240°)15.0 mphMostly Cloudy
11:00 AM-4.0 °F-14.8 °F60 %30.14 in25.0 miWSW (250°)10.4 mphMostly Cloudy
12:00 PM-0.4 °F-11.2 °F60 %30.11 in25.0 miWest (260°)12.7 mphMostly Cloudy
1:00 PM-0.4 °F-11.2 °F60 %30.08 in25.0 miSW (220°)13.8 mphMostly Cloudy
1:00 PM0.0 °F-7.0 °F58 %30.08 inSW (230°)10.4 mph
2:00 PM1.4 °F-9.4 °F61 %30.07 in25.0 miSW (230°)17.3 mphMostly Cloudy
3:00 PM-0.4 °F-9.4 °F66 %30.05 in25.0 miSW (230°)18.4 mphMostly Cloudy
4:00 PM-1.0 °F-7.0 °F64 %30.04 inWSW (250°)5.8 mph
4:00 PM-0.4 °F-11.2 °F60 %30.04 in25.0 miWSW (240°)18.4 mphMostly Cloudy
5:00 PM-0.4 °F-11.2 °F60 %30.03 in15.0 miWSW (250°)17.3 mphMostly Cloudy
6:00 PM-0.4 °F-11.2 °F60 %30.02 in15.0 miWest (260°)8.1 mphMostly Cloudy
7:00 PM-2.2 °F-11.2 °F66 %30.02 in15.0 miWest (270°)6.9 mphOvercast
7:00 PM-1.0 °F-6.0 °F68 %30.01 inWSW (250°)6.9 mph
7:36 PM-2.2 °F0.0 °F10.0 miWest (280°)5.8 mphSnowLight Snow
8:00 PM-2.2 °F-11.2 °F66 %30.00 in10.0 miWNW (290°)4.6 mphSnowLight Snow
9:00 PM-2.2 °F-9.4 °F71 %29.98 in10.0 miWest (270°)6.9 mphSnowLight Snow
10:00 PM-3.0 °F-7.0 °F72 %29.96 inWNW (300°)3.5 mph
10:00 PM-2.2 °F-11.2 °F66 %29.96 in12.0 miWest (280°)3.5 mphScattered Clouds
11:00 PM-2.2 °F-9.4 °F71 %29.94 in10.0 miCalmSnowLight Snow
Hourly data recorded from CYQB, located miles away from Quebec City Airport, Quebec







STORIES FROM OUR PARTNERS